COSMOS 1691 DEB, 16268

Orbit data source: Space-Track

COSMOS 1691 DEB, 16268 is space debris in LEO originally from a launch on Wed, 09 Oct 1985 UTC launched from the Plesetsk Missile And Space Complex (PKMTR). Debris objects in space refer to the collection of defunct objects orbiting the Earth. Examples of debris include non-operational satellites, rocket bodies, and fragments generated from explosions, collisions, or faulty payload assembly.

Loading next visibility...
Identifier
16268, 1985-094M
Orbit
LEO
Country
Flag of CISCIS
Related business
Manufacturer
Unknown
Mission
Spacecraft
Bus & Motor
Unknown
Mass
Unknown
Launch date (UTC)
1985-10-09 (40 years ago)
Launch vehicle
Unknown
Launch site
Plesetsk Missile And Space Complex (PKMTR)
Object type
Payload
Rocket body
Debris
Shape & HBR
Unknown shape, 0.1 m
Radar Cross Section
Small (<0.1 m²)

Expand to show TLE details & history
Last TLE update: 23 hours ago

TLE from 23 hours ago
0 COSMOS 1691 DEB
1 16268U 85094M   26036.65364112  .00000360  00000-0  20761-2 0  9991
2 16268  82.7095 281.6567 0082085  70.5700 305.6188 12.56573832840301
Epoch: 2026-02-05T15:41Z
TLE epoch observation values (Epoch: 2026-02-05T15:41:14.592Z)
Latitude
15.26993°
Longitude
-87.46523°
Altitude
1,402.146 km
Speed
7.177 km/s
True Right ascension
18h 54m 35s
True Declination
15° 11' 24"
Sunlit
Object was in daylight at epoch
Visualization orbit readout
Latitude
Unknown
Longitude
Unknown
Altitude
Unknown
Speed
Unknown
Apparent Right ascension
Unknown
Apparent Declination
Unknown
Sunlit
N/A
Visualization observer readout
Local Sidereal Time
17:10:36
Azimuth
Unknown
Elevation
Unknown
Doppler factor
Unknown
Orbital elements
Apogee altitude
1,498.571 km
Perigee altitude
1,370.312 km
Semi-major axis
7,812.579 km
Eccentricity
0.00821
Inclination
82.7095°
RAAN
281.6567°
Arg. of periapsis
70.57°
True anomaly
304.84958°
Mean anomaly
305.6188°
Eccentric anomaly
305.23465°
Mean motion
3.14305 °/min
Orbital period
114.54 mins
BSTAR
0.0020761
Loading maneuver chart data...
Computing Atmospheric mass density...
Loading historical data...
Loading historical data...
Loading historical data...
Loading historical data...
Loading historical data...
Loading historical data...
Loading historical data...

Documentation

Showing up to 5 results
|